Weather History for KBOK - July, 2013

Change the Weather History Date:

Monday, July 29, 2013

  Actual Average Record
Temperature  
Mean Temperature 55 °F -  
Max Temperature 59 °F 66 °F 100 °F (2015)
Min Temperature 51 °F 51 °F 45 °F (1932)
Degree Days  
Heating Degree Days 10    
Growing Degree Days 5 (Base 50)    
Moisture  
Dew Point 52 °F    
Average Humidity 92    
Maximum Humidity 100    
Minimum Humidity 80    
Precipitation  
Precipitation 0.00 in - - ()
Sea Level Pressure  
Sea Level Pressure 29.96 in    
Wind  
Wind Speed 2 mph (SSW)    
Max Wind Speed 7 mph    
Max Gust Speed -    
Visibility 4 miles    
Events Fog    
Averages and records for this station are not official NWS values.
T = Trace of Precipitation, MM = Missing Value Source: NWS Daily Summary

Daily Weather History Graph

Daily Weather History Graph

Search for Another Location

Airport or City:

Trip Planner

Search our weather history database for the weather conditions in past years. The results will help you decide how hot, cold, wet, or windy it might be!

Date:

Astronomy

Jul. 29, 2013 Rise Set
Actual Time 6:07 AM PDT 8:38 PM PDT
Civil Twilight 5:35 AM PDT 9:10 PM PDT
Nautical Twilight 4:56 AM PDT 9:50 PM PDT
Astronomical Twilight 4:11 AM PDT 10:34 PM PDT
Moon No Moon Rise 2:04 PM PDT (7/29)
Length of Visible Light 15h 34m
Length of Day
14h 31m
Waning Gibbous, 50% of the Moon is Illuminated
Jul 29
Waning Gibbous
Aug 6
New
Aug 14
First Quarter
Aug 20
Full
Aug 28
Last Quarter

Hourly Weather History & Observations

Time (PDT) Temp. Dew Point Humidity Pressure Visibility Wind Dir Wind Speed Gust Speed Precip Events Conditions
12:56 AM 54.0 °F 50.9 °F 89% 29.89 in 6.0 mi Calm Calm - N/A   Clear
1:56 AM 52.9 °F 50.9 °F 93% 29.89 in 6.0 mi Calm Calm - N/A   Clear
2:56 AM 52.9 °F 50.9 °F 93% 29.88 in 6.0 mi Calm Calm - N/A   Clear
3:56 AM 52.9 °F 50.9 °F 93% 29.88 in 6.0 mi Calm Calm - N/A   Clear
4:41 AM 53.6 °F 51.8 °F 94% 29.89 in 6.0 mi Calm Calm - N/A   Scattered Clouds
4:49 AM 53.6 °F 51.8 °F 94% 29.89 in 5.0 mi Calm Calm - N/A   Mostly Cloudy
4:56 AM 52.9 °F 50.9 °F 93% 29.88 in 5.0 mi Calm Calm - N/A   Mostly Cloudy
5:56 AM 52.9 °F 50.9 °F 93% 29.89 in 4.0 mi Calm Calm - N/A   Overcast
6:41 AM 51.8 °F 51.8 °F 100% 29.89 in 2.5 mi Calm Calm - N/A   Overcast
6:48 AM 51.8 °F 51.8 °F 100% 29.89 in 2.0 mi Calm Calm - N/A   Overcast
6:56 AM 52.0 °F 50.9 °F 96% 29.90 in 3.0 mi Calm Calm - N/A   Overcast
7:56 AM 52.0 °F 50.9 °F 96% 29.91 in 1.0 mi Calm Calm - N/A   Overcast
8:11 AM 51.8 °F 51.8 °F 100% 29.91 in 1.2 mi Calm Calm - N/A   Overcast
8:20 AM 51.8 °F 51.8 °F 100% 29.91 in 1.0 mi Calm Calm - N/A   Overcast
8:25 AM 53.6 °F 51.8 °F 94% 29.91 in 1.5 mi Calm Calm - N/A   Overcast
8:36 AM 53.6 °F 51.8 °F 94% 29.92 in 2.0 mi Calm Calm - N/A   Overcast
8:49 AM 53.6 °F 51.8 °F 94% 29.92 in 3.0 mi Calm Calm - N/A   Overcast
8:56 AM 54.0 °F 52.0 °F 93% 29.92 in 3.0 mi Calm Calm - N/A   Overcast
9:12 AM 53.6 °F 51.8 °F 94% 29.92 in 1.8 mi SW 3.5 mph - N/A   Overcast
9:18 AM 53.6 °F 51.8 °F 94% 29.92 in 1.0 mi WSW 3.5 mph - N/A   Overcast
9:24 AM 53.6 °F 51.8 °F 94% 29.92 in 0.5 mi WSW 3.5 mph - N/A Fog Fog
9:32 AM 53.6 °F 51.8 °F 94% 29.92 in 1.0 mi Calm Calm - N/A   Overcast
9:39 AM 53.6 °F 51.8 °F 94% 29.92 in 0.5 mi WSW 4.6 mph - N/A Fog Fog
9:47 AM 53.6 °F 51.8 °F 94% 29.93 in 0.2 mi SW 3.5 mph - N/A Fog Fog
9:56 AM 52.9 °F 52.0 °F 97% 29.94 in 0.2 mi WSW 3.5 mph - N/A Fog Fog
10:34 AM 53.6 °F 51.8 °F 94% 29.93 in 0.5 mi Variable 3.5 mph - N/A Fog Fog
10:48 AM 53.6 °F 51.8 °F 94% 29.94 in 0.2 mi SW 4.6 mph - N/A Fog Fog
10:56 AM 52.9 °F 52.0 °F 97% 29.95 in 0.2 mi SW 5.8 mph - N/A Fog Fog
11:32 AM 53.6 °F 51.8 °F 94% 29.94 in 0.5 mi SSW 4.6 mph - N/A Fog Fog
11:40 AM 53.6 °F 51.8 °F 94% 29.94 in 0.8 mi Calm Calm - N/A   Overcast
11:47 AM 53.6 °F 51.8 °F 94% 29.95 in 1.2 mi Variable 3.5 mph - N/A   Overcast
11:56 AM 54.9 °F 52.0 °F 90% 29.96 in 3.0 mi West 4.6 mph - N/A   Overcast
12:56 PM 55.9 °F 52.0 °F 87% 29.97 in 4.0 mi Variable 3.5 mph - N/A   Overcast
1:35 PM 55.4 °F 51.8 °F 88% 29.97 in 1.8 mi South 6.9 mph - N/A   Overcast
1:39 PM 55.4 °F 51.8 °F 88% 29.97 in 1.0 mi Variable 5.8 mph - N/A   Overcast
1:56 PM 54.9 °F 52.0 °F 90% 29.97 in 0.5 mi SE 5.8 mph - N/A Fog Fog
2:06 PM 53.6 °F 51.8 °F 94% 29.97 in 1.0 mi Variable 4.6 mph - N/A   Overcast
2:13 PM 53.6 °F 53.6 °F 100% 29.97 in 0.5 mi SE 5.8 mph - N/A Fog Fog
2:23 PM 55.4 °F 51.8 °F 88% 29.97 in 1.0 mi Variable 5.8 mph - N/A   Overcast
2:32 PM 55.4 °F 51.8 °F 88% 29.97 in 1.5 mi Variable 5.8 mph - N/A   Overcast
2:39 PM 55.4 °F 51.8 °F 88% 29.97 in 3.0 mi SSE 4.6 mph - N/A   Overcast
2:56 PM 55.9 °F 52.0 °F 87% 29.99 in 5.0 mi Variable 6.9 mph - N/A   Overcast
3:21 PM 55.4 °F 53.6 °F 94% 29.99 in 6.0 mi Variable 4.6 mph - N/A   Overcast
3:56 PM 56.8 °F 52.0 °F 84% 30.00 in 7.0 mi Variable 4.6 mph - N/A   Mostly Cloudy
4:41 PM 59.0 °F 53.6 °F 82% 30.00 in 9.0 mi South 5.8 mph - N/A   Partly Cloudy
4:56 PM 57.9 °F 52.0 °F 81% 30.00 in 8.0 mi South 6.9 mph - N/A   Mostly Cloudy
5:21 PM 59.0 °F 53.6 °F 82% 29.99 in 8.0 mi Variable 5.8 mph - N/A   Scattered Clouds
5:56 PM 57.9 °F 52.9 °F 83% 29.99 in 8.0 mi Calm Calm - N/A   Clear
6:56 PM 59.0 °F 52.9 °F 80% 30.01 in 8.0 mi South 6.9 mph - N/A   Clear
7:56 PM 56.8 °F 52.0 °F 84% 30.04 in 8.0 mi SSE 6.9 mph - N/A   Clear
8:24 PM 55.4 °F 51.8 °F 88% 30.04 in 8.0 mi SSE 6.9 mph - N/A   Partly Cloudy
8:56 PM 54.0 °F 50.9 °F 89% 30.05 in 7.0 mi Calm Calm - N/A   Partly Cloudy
9:25 PM 53.6 °F 51.8 °F 94% 30.05 in 8.0 mi Calm Calm - N/A   Mostly Cloudy
9:32 PM 53.6 °F 51.8 °F 94% 30.05 in 9.0 mi Calm Calm - N/A   Scattered Clouds
9:56 PM 52.9 °F 50.9 °F 93% 30.06 in 8.0 mi North 3.5 mph - N/A   Clear
10:15 PM 53.6 °F 51.8 °F 94% 30.06 in 7.0 mi NNW 3.5 mph - N/A   Scattered Clouds
10:24 PM 53.6 °F 51.8 °F 94% 30.06 in 7.0 mi Calm Calm - N/A   Mostly Cloudy
10:56 PM 52.0 °F 50.9 °F 96% 30.07 in 4.0 mi Calm Calm - N/A   Overcast
11:56 PM 52.9 °F 52.0 °F 97% 30.08 in 5.0 mi Calm Calm - N/A   Overcast